SCP
1 1 1 1 1 0 0 0 0 0 0 0 0 0 1 1 1 1 2 3 3 3 3 5 5 5 4 4 4 4 3 3 3 3 3 3 3 4 3 3 2 2 2 2 2 2 1 1 1
1 1 1 1 1 1 0 0 0 0 0 0 0 0 1 1 1 2 3 3 3 3 3 4 5 5 4 4 3 3 3 3 3 3 3 3 3 3 3 3 2 2 2 2 2 2 1 1 1
1 1 1 1 1 0 0 0 0 0 0 0 0 0 1 1 1 2 3 3 3 3 3 4 4 5 5 4 3 2 2 2 3 2 2 2 3 3 3 2 2 2 2 2 1 1 1 1 1
0 0 1 1 1 0 0 0 0 0 1 1 1 1 1 1 1 2 3 4 4 3 3 3 4 4 4 4 3 2 2 2 2 2 2 2 2 2 2 2 2 2 2 2 1 1 1 1 1
0 0 0 0 0 0 0 0 0 1 1 1 1 1 2 2 2 3 4 4 4 4 4 4 4 4 4 4 3 2 2 2 2 2 2 2 2 2 2 2 2 2 2 2 1 1 1 1 1
1 1 0 0 0 0 0 0 0 0 0 0 1 1 3 3 3 3 4 5 5 5 4 4 4 4 4 3 3 3 3 3 2 2 2 3 3 3 2 2 2 2 2 2 2 1 1 1 1
1 1 0 0 0 0 0 0 0 0 0 0 0 2 3 4 3 3 4 5 6 6 5 4 4 4 4 4 3 3 3 3 3 2 2 2 3 3 2 2 2 2 2 2 2 2 2 1 1
1 1 0 0 0 0 0 0 0 0 0 0 0 1 3 3 3 3 4 5 6 5 5 4 4 4 4 3 3 2 3 3 3 2 2 2 2 2 2 2 2 2 2 2 2 2 2 2 1
1 0 0 0 0 0 0 0 0 0 0 0 1 1 2 3 4 3 4 4 4 3 3 3 4 3 3 3 2 2 2 3 3 2 2 2 2 2 2 2 2 2 2 2 2 2 2 2 2
0 0 0 0 0 0 0 0 0 0 0 1 1 1 2 3 3 3 3 2 2 2 2 2 2 3 2 2 2 2 2 2 3 2 2 2 2 2 2 2 2 2 2 3 3 2 2 2 2
0 0 0 0 0 0 0 0 0 0 0 1 1 1 2 2 3 2 2 2 2 2 2 2 2 2 2 2 2 2 2 2 2 2 2 2 2 1 1 1 1 1 2 3 3 2 2 2 2
0 0 0 0 0 0 0 0 0 0 0 0 0 1 1 2 2 2 2 2 2 2 2 2 2 1 1 1 1 1 1 2 2 2 2 2 2 1 1 0 0 1 1 2 2 2 2 2 2
0 0 0 0 0 0 0 0 0 0 0 0 0 0 1 1 2 2 2 2 2 2 2 2 2 1 1 1 1 1 1 1 1 2 2 2 2 1 1 0 0 1 1 1 1 1 2 2 2
0 0 0 0 0 0 0 0 0 0 0 0 0 0 0 1 1 2 3 3 2 2 2 2 1 1 1 1 1 1 1 1 1 2 2 2 2 1 1 0 0 1 1 1 1 1 1 1 1
0 0 0 0 0 0 0 0 0 0 0 0 0 0 0 1 1 2 3 3 3 2 2 2 1 1 1 1 1 1 1 1 1 1 2 2 1 1 1 0 0 0 1 1 1 1 1 1 1
0 0 0 0 0 0 0 0 0 0 0 0 0 0 0 1 1 1 2 3 3 2 1 1 1 1 1 1 0 0 1 1 1 1 2 2 1 1 1 0 0 0 1 1 1 0 0 1 1
0 0 0 0 0 0 0 0 0 0 0 0 0 0 0 0 0 1 2 2 2 2 1 1 1 1 1 1 1 1 1 1 1 1 1 2 1 1 1 1 1 0 0 0 0 0 0 0 0
0 0 0 0 0 0 0 0 0 0 0 0 0 0 0 0 0 1 2 2 2 2 1 1 1 1 2 2 1 1 1 1 1 1 1 1 1 1 1 1 1 1 0 0 0 0 0 0 0
0 0 0 0 0 0 0 0 0 0 0 0 0 0 0 0 0 1 2 2 2 2 2 1 1 2 2 2 1 1 1 1 1 1 1 1 1 1 1 1 1 1 0 0 0 0 0 0 0
0 0 0 0 0 0 0 0 0 0 0 0 0 0 0 0 0 1 1 2 2 1 1 1 1 2 2 2 1 1 1 1 1 1 1 1 1 1 1 1 1 1 0 0 0 0 0 0 0
0 0 0 0 0 0 0 0 0 0 0 0 0 0 0 0 0 1 1 1 1 1 1 1 1 1 1 1 1 1 0 0 1 1 1 1 1 1 1 1 0 0 0 0 0 0 0 0 0
0 0 0 0 0 0 0 0 0 0 0 0 0 0 0 0 0 0 1 1 1 1 1 1 1 1 1 1 1 0 0 0 0 0 1 1 1 1 1 0 0 0 0 0 0 0 0 0 0
0 0 0 0 0 0 0 0 0 0 0 0 0 0 0 0 0 0 0 0 0 0 1 1 1 1 1 1 1 0 0 0 0 0 1 1 1 1 0 0 0 0 0 0 0 0 0 0 0
0 0 0 0 0 0 0 0 0 0 0 0 0 0 0 0 0 0 0 0 0 0 0 0 1 0 0 0 0 0 0 0 0 0 1 2 1 1 0 0 0 0 0 0 0 0 0 0 0
0 0 0 0 0 0 0 0 0 0 0 0 0 0 0 0 0 0 0 0 0 0 0 0 0 0 0 0 0 0 0 0 0 1 1 1 1 0 0 0 0 0 0 0 0 0 0 0 0
0 0 0 0 0 0 0 0 0 0 0 0 0 0 0 0 0 0 0 0 0 0 0 0 0 0 0 0 0 0 0 0 0 1 1 1 0 0 0 0 0 0 0 0 0 0 0 0 0
0 0 0 0 0 0 0 0 0 0 0 0 0 0 0 0 0 0 0 0 0 0 0 0 0 0 0 0 0 0 0 0 0 1 1 0 0 0 0 0 0 0 0 0 0 0 0 0 0
0 0 0 0 0 0 0 0 0 0 0 0 0 0 0 0 0 0 0 0 0 0 0 0 0 0 0 0 0 0 0 0 0 0 0 0 0 0 0 0 0 0 0 0 0 0 0 0 0
0 0 0 0 0 0 0 0 0 0 0 0 0 0 0 0 0 0 0 0 0 0 0 0 0 0 0 0 0 0 0 0 0 0 0 0 0 0 0 0 0 0 0 0 0 0 0 0 0
0 0 0 0 0 0 0 0 0 0 0 0 0 0 0 0 0 0 0 0 0 0 0 0 0 0 0 0 0 0 0 0 0 0 0 0 0 0 0 0 0 0 0 0 0 0 0 0 0
Wind_Speed
8 5 2 4 6 4 2 4 2 1 1 2 1 2 4 3 2 3 2 5 7 7 7 8 10 11 11 11 10 10 10 10 10 10 10 10 10 9 9 9 9 9 9 8 8 8 8 8 8
4 3 5 5 5 1 4 4 2 2 3 2 2 2 3 1 2 4 3 5 8 8 6 7 10 11 12 12 10 10 9 10 10 10 10 10 10 9 9 9 8 8 8 8 8 8 8 7 7
4 2 4 4 3 5 4 2 3 3 3 1 2 2 2 2 2 2 4 7 7 6 6 7 10 11 12 12 11 10 9 9 9 9 9 9 9 9 9 8 8 8 8 8 8 7 7 6 5
3 4 4 4 3 4 3 3 2 2 4 3 2 2 2 1 1 3 6 8 8 6 5 7 10 11 11 11 11 10 10 9 9 9 8 9 9 9 8 8 7 7 7 7 7 6 6 5 4
4 4 3 0 3 4 3 3 2 0 1 2 2 1 1 4 2 6 7 8 9 7 5 7 10 10 10 11 10 10 9 8 8 9 8 8 8 8 8 8 7 7 6 6 6 5 5 4 3
4 4 3 2 4 3 2 3 1 1 1 1 1 1 1 1 3 5 6 6 8 8 6 6 9 9 9 10 9 8 8 8 8 8 8 7 7 7 7 7 7 6 6 6 5 5 4 3 3
4 4 3 3 2 3 3 1 1 1 2 2 2 2 1 1 1 4 6 6 6 7 6 4 5 6 8 8 9 8 8 8 7 7 7 6 6 6 7 7 6 6 5 5 5 4 3 3 2
3 4 1 2 2 4 2 1 1 1 3 1 2 4 4 4 2 5 6 6 6 6 5 5 4 4 4 4 7 8 7 7 7 7 7 6 5 5 5 5 5 5 5 4 4 3 2 2 2
3 4 2 3 3 3 2 2 2 1 0 1 1 2 4 5 5 6 6 5 5 5 4 4 4 4 3 3 5 6 6 6 6 6 7 5 3 2 2 3 4 4 4 3 3 2 2 2 2
4 3 5 3 2 3 2 2 2 2 1 1 2 2 2 5 6 7 7 5 5 4 4 3 4 3 3 3 3 2 3 3 3 3 3 3 2 2 3 3 3 3 3 3 3 2 2 2 1
3 4 3 3 2 2 2 2 1 1 2 3 3 2 3 5 5 6 6 5 5 5 4 3 4 3 3 2 2 1 2 2 2 3 3 3 3 2 2 1 1 2 2 2 2 2 1 1 1
2 4 4 3 2 1 2 1 2 3 5 3 4 5 6 6 6 6 6 5 4 4 4 4 4 4 3 3 2 2 2 2 2 2 3 3 2 2 2 1 1 1 1 1 1 1 1 1 1
2 3 3 3 3 2 2 3 3 4 4 1 2 4 5 5 5 4 5 5 5 4 4 4 4 4 3 3 2 2 2 2 2 2 2 3 2 2 2 1 1 1 1 1 1 1 1 1 1
3 3 4 3 3 2 2 4 2 5 3 2 4 5 5 6 5 4 4 4 5 5 4 4 4 3 3 3 3 2 2 2 2 2 3 3 2 2 2 1 1 1 1 1 1 1 1 1 1
1 1 4 3 3 2 1 4 5 6 2 3 4 4 5 5 5 5 6 5 6 5 5 5 5 4 4 4 3 2 2 2 2 2 2 3 3 3 2 2 1 1 1 1 1 1 1 1 2
1 1 2 4 1 1 2 6 6 3 3 3 4 4 4 4 4 4 5 5 5 6 5 5 5 5 5 4 3 2 2 3 2 2 2 3 3 3 3 2 1 1 1 1 1 1 1 1 1
2 0 3 4 2 0 2 6 6 2 3 4 3 3 3 3 2 3 4 5 6 7 6 5 5 5 5 4 3 3 2 3 2 2 2 2 3 3 3 2 1 1 1 1 1 2 1 1 1
3 2 3 4 3 1 3 7 7 4 3 4 3 3 3 4 4 4 5 5 6 6 6 6 5 5 5 4 3 3 3 2 2 2 1 2 2 2 3 2 2 1 2 2 1 1 1 1 1
3 3 4 6 3 2 6 8 8 5 3 3 4 4 4 5 3 3 4 5 5 5 5 5 5 5 4 3 3 2 1 1 2 1 1 2 2 2 3 2 1 1 2 1 1 1 2 1 1
2 2 4 5 3 2 5 8 8 4 4 5 6 6 6 4 3 3 4 4 5 6 5 5 5 5 4 3 3 2 2 1 1 1 1 2 2 2 2 2 1 1 1 2 2 2 1 1 2
3 4 4 4 4 2 3 7 5 3 2 3 4 5 6 7 7 6 5 5 5 5 6 6 5 5 5 5 3 3 3 2 1 1 1 1 2 2 2 2 2 2 1 1 1 2 2 1 1
4 4 4 2 1 3 0 4 6 4 3 4 5 5 6 6 6 5 6 5 6 5 5 5 5 5 4 5 5 5 4 3 3 1 1 1 1 2 2 2 2 1 1 1 1 1 1 2 0
4 1 1 1 1 2 2 3 9 2 5 7 7 7 6 6 6 6 6 6 5 5 5 5 5 4 4 4 5 5 3 2 1 1 2 1 1 1 1 1 1 1 1 1 1 1 1 1 1
2 3 3 3 3 3 4 4 8 5 7 7 7 7 7 7 6 5 4 4 3 3 4 5 5 4 4 5 5 6 5 4 3 2 2 1 1 0 1 1 1 0 0 0 0 0 1 1 1
3 4 4 4 2 6 2 4 10 6 6 7 8 8 7 7 6 6 6 5 5 4 4 5 6 5 5 5 5 5 5 5 5 4 3 3 1 1 1 1 1 1 1 1 1 1 1 1 1
3 6 6 4 5 5 3 6 8 5 3 2 4 6 6 6 6 6 7 6 6 6 5 5 6 5 5 5 5 4 4 3 3 4 3 3 3 2 2 2 2 1 1 1 1 1 1 0 1
4 3 4 4 1 3 5 6 7 1 2 2 3 4 5 5 6 6 6 6 5 5 5 6 6 4 5 5 5 4 4 4 4 3 3 3 2 2 2 2 2 2 1 1 1 1 1 1 1
3 5 4 4 3 4 5 5 5 3 3 2 3 4 5 4 5 5 5 5 5 5 4 4 4 4 3 4 5 4 4 4 4 3 3 3 3 2 2 2 2 2 2 1 1 1 2 2 2
4 3 3 3 4 4 4 7 5 5 5 6 6 5 6 6 6 5 5 4 4 4 4 4 4 3 2 3 3 3 3 3 3 3 4 3 3 3 3 3 2 2 2 2 2 2 2 3 3
4 5 6 5 4 4 3 9 4 3 3 4 5 4 4 4 4 4 3 3 3 4 4 4 4 3 3 3 3 3 3 3 3 3 3 3 3 3 3 3 3 3 3 2 3 3 3 3 4
Wind_Direction
336 339 50 56 58 56 237 253 240 297 309 284 308 108 120 136 170 183 149 130 128 140 147 142 132 128 123 119 117 113 118 119 118 118 118 117 116 115 114 113 112 113 111 107 103 100 96 92 90
339 356 50 61 94 146 255 252 239 258 240 300 10 56 81 80 96 109 120 134 131 134 139 140 132 130 126 121 118 116 113 117 117 118 118 118 116 116 115 113 112 112 110 108 104 101 98 95 90
340 43 78 81 132 185 219 242 233 277 290 339 22 37 96 131 121 148 156 141 128 128 135 139 132 131 128 123 120 119 115 113 117 118 118 119 119 117 114 112 111 111 111 109 106 103 100 94 88
46 46 60 88 205 226 216 249 249 329 335 6 67 33 12 353 199 152 141 133 126 125 126 136 132 130 126 123 122 119 117 114 117 116 118 118 119 119 116 110 110 112 111 110 111 109 106 98 90
64 81 81 136 236 243 236 248 240 3 307 334 59 103 338 335 80 118 131 128 129 126 123 127 126 127 126 123 121 118 115 113 114 118 117 120 118 116 115 112 108 114 118 118 116 117 116 106 91
61 76 110 208 238 258 262 253 251 286 269 312 66 120 244 325 87 118 125 122 126 124 119 122 122 121 121 120 118 121 118 116 113 118 118 115 116 116 114 114 108 108 114 117 117 118 118 111 93
109 113 169 198 228 264 266 272 179 232 250 237 157 133 221 297 95 117 117 115 116 115 115 112 115 118 118 119 120 119 118 114 111 115 111 102 104 112 117 114 111 107 111 113 111 112 116 108 90
129 112 169 217 212 246 272 324 251 196 240 259 120 150 197 220 150 110 110 110 113 113 115 114 108 108 116 120 123 118 115 111 105 107 104 96 93 104 110 111 108 103 95 104 105 102 98 89 68
96 87 207 219 209 239 284 345 323 307 142 24 47 199 212 159 131 114 109 105 108 110 113 118 119 120 125 131 123 116 111 106 104 101 98 96 94 99 108 104 104 101 89 83 95 89 74 62 40
93 154 219 223 218 237 289 296 283 351 360 6 9 3 107 136 138 135 135 139 137 139 139 133 131 131 126 122 107 107 107 105 103 103 103 100 96 86 90 85 85 92 82 64 66 64 53 47 13
148 195 228 248 246 241 283 293 284 161 261 225 215 208 162 149 147 147 148 153 153 153 144 147 140 129 118 111 116 101 96 98 100 99 101 97 88 81 73 78 61 61 75 65 45 43 32 34 12
180 236 232 244 252 246 246 254 277 230 234 237 200 182 172 169 170 169 162 160 153 149 147 139 134 125 118 114 114 113 104 103 109 105 106 107 98 85 81 76 71 60 55 69 55 36 20 23 7
213 245 254 251 261 243 251 254 255 253 258 243 165 165 182 182 181 173 166 161 150 153 148 143 132 132 124 111 114 112 107 102 100 105 100 105 110 102 87 76 76 62 44 49 52 45 31 11 355
217 248 276 269 265 257 243 266 243 257 245 184 165 178 194 186 178 167 164 165 162 160 148 141 137 129 125 117 117 124 114 107 88 88 101 102 107 109 104 88 75 60 50 41 56 67 60 21 26
228 300 308 268 244 241 185 287 247 251 209 185 185 199 196 189 179 181 179 171 167 160 148 141 139 130 124 117 114 113 109 103 87 82 94 99 103 105 102 91 80 61 58 68 55 45 64 47 34
30 39 310 292 242 239 136 263 271 257 183 204 211 207 186 192 189 190 178 168 160 157 148 141 136 134 124 117 109 104 102 102 91 77 90 89 89 100 97 86 65 61 62 62 69 50 52 34 18
26 270 267 296 275 248 179 256 276 267 192 206 213 207 184 187 185 193 177 170 163 160 150 142 135 134 125 116 108 101 92 92 93 72 76 87 83 86 92 86 59 89 84 61 58 61 70 39 3
227 235 268 270 276 301 253 262 280 283 218 216 212 200 186 191 202 190 175 167 161 155 150 145 139 136 124 107 91 77 68 66 69 70 60 84 83 80 86 79 57 72 87 66 64 73 49 63 3
195 211 257 266 273 262 254 265 273 273 243 227 216 199 193 204 203 171 165 160 152 148 147 146 144 145 134 121 120 115 105 81 62 55 65 90 88 82 84 77 57 60 86 89 78 90 64 38 32
217 241 266 287 302 254 268 276 274 262 227 209 202 200 198 194 185 176 167 161 161 161 161 153 154 155 153 146 145 140 134 122 118 67 39 82 91 84 86 82 67 61 75 72 69 76 76 30 39
236 213 228 257 321 318 307 301 275 266 233 212 202 197 196 192 191 186 178 174 167 170 171 165 165 164 164 149 130 114 88 71 64 45 13 64 102 96 86 82 69 57 76 84 79 84 96 95 8
249 231 214 226 14 289 248 284 280 248 249 230 218 206 201 198 188 179 176 174 178 184 174 164 166 167 169 158 154 153 153 165 188 182 186 145 109 102 94 92 79 64 70 81 75 79 112 127 127
223 247 204 196 177 300 257 225 281 252 242 239 224 209 202 195 186 178 178 178 176 171 167 164 163 171 173 168 162 156 160 166 157 159 156 139 98 97 105 106 95 76 69 83 82 83 99 124 161
170 44 38 48 74 281 232 192 273 231 222 227 220 208 198 190 184 178 171 158 155 155 158 161 164 174 174 168 167 170 174 172 170 179 166 158 140 126 121 120 118 139 163 171 182 153 146 168 175
95 88 34 0 350 254 245 208 254 256 236 214 206 202 193 182 176 175 171 171 170 168 169 168 168 178 180 174 181 183 182 178 186 187 178 171 171 190 211 171 175 204 218 204 190 170 199 192 190
184 149 159 198 231 276 291 236 255 281 278 226 191 179 177 179 181 183 182 180 180 178 176 170 175 183 183 183 190 190 186 182 185 184 178 183 192 201 197 189 196 211 217 213 195 199 235 214 214
155 188 173 140 190 265 268 277 297 329 21 69 134 150 176 183 188 189 185 180 180 179 182 178 175 178 187 190 185 186 192 184 186 185 182 189 198 199 192 191 196 209 212 211 201 219 244 233 234
163 153 116 138 173 253 281 267 250 239 231 194 170 181 190 182 186 191 188 185 184 185 183 173 175 181 185 188 190 187 188 185 184 177 190 194 196 191 190 199 203 215 221 212 204 226 238 231 247
162 166 156 154 177 181 255 269 230 213 204 200 204 197 191 190 190 191 190 186 180 174 170 172 180 176 175 185 182 179 183 181 178 186 198 196 195 193 198 203 205 217 224 223 220 235 236 238 253
186 185 159 168 221 196 206 267 275 219 209 192 194 192 190 189 191 187 181 171 172 178 176 178 181 182 186 184 178 184 181 176 184 200 207 197 198 202 204 204 209 223 226 223 224 238 242 239 246